Вернуться в каталог

COSMOS 2251 DEB

АктивенLEO
NORAD 35614·DEBRIS·🇷🇺 Russia

Запущен Jun 16, 1993 с Plesetsk Cosmodrome

Loading…

Ближайшие Пролёты (ближайшие 24 часа)

TLE

СвежийSource: Space-Track

Эпоха: Sep 14, 2026, 09:23 UTC

1 35614U 93036ANH 26257.39118004  .00002544  00000-0  41875-3 0  9991
2 35614  73.9583 151.8525 0073466 298.4477  60.9304 14.69351457917756

Отслеживайте COSMOS 2251 DEB в реальном времени с AllMySat

Download on the App Store